Year,Month,Day,Hour,Minute,Value (Times are PST for temperature in C)
2014,04,16,00,00,9.60
2014,04,16,00,01,9.60
2014,04,16,00,02,9.60
2014,04,16,00,03,9.60
2014,04,16,00,04,9.60
2014,04,16,00,05,9.60
2014,04,16,00,06,9.60
2014,04,16,00,07,9.60
2014,04,16,00,08,9.60
2014,04,16,00,09,9.60
2014,04,16,00,10,9.60
2014,04,16,00,11,9.60
2014,04,16,00,12,9.60
2014,04,16,00,13,9.60
2014,04,16,00,14,9.60
2014,04,16,00,15,9.60
2014,04,16,00,16,9.60
2014,04,16,00,17,9.60
2014,04,16,00,18,9.60
2014,04,16,00,19,9.60
2014,04,16,00,20,9.60
2014,04,16,00,21,9.60
2014,04,16,00,22,9.60
2014,04,16,00,23,9.60
2014,04,16,00,24,9.60
2014,04,16,00,25,9.60
2014,04,16,00,26,9.60
2014,04,16,00,27,9.60
2014,04,16,00,28,9.60
2014,04,16,00,29,9.60
2014,04,16,00,30,9.60
2014,04,16,00,31,9.60
2014,04,16,00,32,9.60
2014,04,16,00,33,9.60
2014,04,16,00,34,9.60
2014,04,16,00,35,9.60
2014,04,16,00,36,9.60
2014,04,16,00,37,9.60
2014,04,16,00,38,9.60
2014,04,16,00,39,9.60
2014,04,16,00,40,9.60
2014,04,16,00,41,9.60
2014,04,16,00,42,9.50
2014,04,16,00,43,9.60
2014,04,16,00,44,9.60
2014,04,16,00,45,9.50
2014,04,16,00,46,9.50
2014,04,16,00,47,9.50
2014,04,16,00,48,9.50
2014,04,16,00,49,9.50
2014,04,16,00,50,9.50
2014,04,16,00,51,9.40
2014,04,16,00,52,9.40
2014,04,16,00,53,9.40
2014,04,16,00,54,9.40
2014,04,16,00,55,9.40
2014,04,16,00,56,9.40
2014,04,16,00,57,9.40
2014,04,16,00,58,9.40
2014,04,16,00,59,9.40
2014,04,16,01,00,9.40
2014,04,16,01,01,9.40
2014,04,16,01,02,9.40
2014,04,16,01,03,9.30
2014,04,16,01,04,9.30
2014,04,16,01,05,9.30
2014,04,16,01,06,9.30
2014,04,16,01,07,9.30
2014,04,16,01,08,9.30
2014,04,16,01,09,9.30
2014,04,16,01,10,9.30
2014,04,16,01,11,9.30
2014,04,16,01,12,9.30
2014,04,16,01,13,9.30
2014,04,16,01,14,9.30
2014,04,16,01,15,9.30
2014,04,16,01,16,9.30
2014,04,16,01,17,9.30
2014,04,16,01,18,9.30
2014,04,16,01,19,9.30
2014,04,16,01,20,9.30
2014,04,16,01,21,9.30
2014,04,16,01,22,9.30
2014,04,16,01,23,9.30
2014,04,16,01,24,9.30
2014,04,16,01,25,9.30
2014,04,16,01,26,9.30
2014,04,16,01,27,9.30
2014,04,16,01,28,9.30
2014,04,16,01,29,9.30
2014,04,16,01,30,9.30
2014,04,16,01,31,9.30
2014,04,16,01,32,9.30
2014,04,16,01,33,9.30
2014,04,16,01,34,9.30
2014,04,16,01,35,9.30
2014,04,16,01,36,9.30
2014,04,16,01,37,9.30
2014,04,16,01,38,9.30
2014,04,16,01,39,9.30
2014,04,16,01,40,9.30
2014,04,16,01,41,9.30
2014,04,16,01,42,9.30
2014,04,16,01,43,9.30
2014,04,16,01,44,9.30
2014,04,16,01,45,9.30
2014,04,16,01,46,9.30
2014,04,16,01,47,9.30
2014,04,16,01,48,9.30
2014,04,16,01,49,9.30
2014,04,16,01,50,9.30
2014,04,16,01,51,9.30
2014,04,16,01,52,9.20
2014,04,16,01,53,9.20
2014,04,16,01,54,9.20
2014,04,16,01,55,9.20
2014,04,16,01,56,9.20
2014,04,16,01,57,9.30
2014,04,16,01,58,9.30
2014,04,16,01,59,9.30
2014,04,16,02,00,9.30
2014,04,16,02,01,9.30
2014,04,16,02,02,9.30
2014,04,16,02,03,9.30
2014,04,16,02,04,9.30
2014,04,16,02,05,9.30
2014,04,16,02,06,9.30
2014,04,16,02,07,9.30
2014,04,16,02,08,9.30
2014,04,16,02,09,9.30
2014,04,16,02,10,9.30
2014,04,16,02,11,9.30
2014,04,16,02,12,9.30
2014,04,16,02,13,9.30
2014,04,16,02,14,9.30
2014,04,16,02,15,9.30
2014,04,16,02,16,9.30
2014,04,16,02,17,9.30
2014,04,16,02,18,9.30
2014,04,16,02,19,9.30
2014,04,16,02,20,9.30
2014,04,16,02,21,9.30
2014,04,16,02,22,9.30
2014,04,16,02,23,9.30
2014,04,16,02,24,9.30
2014,04,16,02,25,9.30
2014,04,16,02,26,9.30
2014,04,16,02,27,9.30
2014,04,16,02,28,9.30
2014,04,16,02,29,9.30
2014,04,16,02,30,9.30
2014,04,16,02,31,9.30
2014,04,16,02,32,9.30
2014,04,16,02,33,9.30
2014,04,16,02,34,9.30
2014,04,16,02,35,9.30
2014,04,16,02,36,9.30
2014,04,16,02,37,9.30
2014,04,16,02,38,9.30
2014,04,16,02,39,9.30
2014,04,16,02,40,9.30
2014,04,16,02,41,9.30
2014,04,16,02,42,9.30
2014,04,16,02,43,9.40
2014,04,16,02,44,9.40
2014,04,16,02,45,9.40
2014,04,16,02,46,9.40
2014,04,16,02,47,9.40
2014,04,16,02,48,9.40
2014,04,16,02,49,9.40
2014,04,16,02,50,9.40
2014,04,16,02,51,9.40
2014,04,16,02,52,9.30
2014,04,16,02,53,9.30
2014,04,16,02,54,9.40
2014,04,16,02,55,9.30
2014,04,16,02,56,9.30
2014,04,16,02,57,9.30
2014,04,16,02,58,9.30
2014,04,16,02,59,9.30
2014,04,16,03,00,9.30
2014,04,16,03,01,9.30
2014,04,16,03,02,9.30
2014,04,16,03,03,9.30
2014,04,16,03,04,9.30
2014,04,16,03,05,9.30
2014,04,16,03,06,9.30
2014,04,16,03,07,9.30
2014,04,16,03,08,9.30
2014,04,16,03,09,9.30
2014,04,16,03,10,9.30
2014,04,16,03,11,9.30
2014,04,16,03,12,9.30
2014,04,16,03,13,9.30
2014,04,16,03,14,9.30
2014,04,16,03,15,9.30
2014,04,16,03,16,9.30
2014,04,16,03,17,9.30
2014,04,16,03,18,9.30
2014,04,16,03,19,9.30
2014,04,16,03,20,9.30
2014,04,16,03,21,9.40
2014,04,16,03,22,9.30
2014,04,16,03,23,9.30
2014,04,16,03,24,9.40
2014,04,16,03,25,9.30
2014,04,16,03,26,9.30
2014,04,16,03,27,9.30
2014,04,16,03,28,9.30
2014,04,16,03,29,9.40
2014,04,16,03,30,9.30
2014,04,16,03,31,9.30
2014,04,16,03,32,9.40
2014,04,16,03,33,9.40
2014,04,16,03,34,9.40
2014,04,16,03,35,9.30
2014,04,16,03,36,9.30
2014,04,16,03,37,9.30
2014,04,16,03,38,9.30
2014,04,16,03,39,9.30
2014,04,16,03,40,9.30
2014,04,16,03,41,9.30
2014,04,16,03,42,9.30
2014,04,16,03,43,9.30
2014,04,16,03,44,9.30
2014,04,16,03,45,9.30
2014,04,16,03,46,9.30
2014,04,16,03,47,9.30
2014,04,16,03,48,9.30
2014,04,16,03,49,9.30
2014,04,16,03,50,9.30
2014,04,16,03,51,9.30
2014,04,16,03,52,9.30
2014,04,16,03,53,9.30
2014,04,16,03,54,9.30
2014,04,16,03,55,9.30
2014,04,16,03,56,9.30
2014,04,16,03,57,9.30
2014,04,16,03,58,9.30
2014,04,16,03,59,9.30
2014,04,16,04,00,9.30
2014,04,16,04,01,9.30
2014,04,16,04,02,9.30
2014,04,16,04,03,9.30
2014,04,16,04,04,9.30
2014,04,16,04,05,9.30
2014,04,16,04,06,9.30
2014,04,16,04,07,9.30
2014,04,16,04,08,9.30
2014,04,16,04,09,9.30
2014,04,16,04,10,9.30
2014,04,16,04,11,9.30
2014,04,16,04,12,9.30
2014,04,16,04,13,9.30
2014,04,16,04,14,9.30
2014,04,16,04,15,9.30
2014,04,16,04,16,9.30
2014,04,16,04,17,9.30
2014,04,16,04,18,9.30
2014,04,16,04,19,9.30
2014,04,16,04,20,9.30
2014,04,16,04,21,9.30
2014,04,16,04,22,9.30
2014,04,16,04,23,9.30
2014,04,16,04,24,9.30
2014,04,16,04,25,9.30
2014,04,16,04,26,9.30
2014,04,16,04,27,9.30
2014,04,16,04,28,9.30
2014,04,16,04,29,9.30
2014,04,16,04,30,9.30
2014,04,16,04,31,9.30
2014,04,16,04,32,9.30
2014,04,16,04,33,9.30
2014,04,16,04,34,9.30
2014,04,16,04,35,9.30
2014,04,16,04,36,9.30
2014,04,16,04,37,9.30
2014,04,16,04,38,9.30
2014,04,16,04,39,9.30
2014,04,16,04,40,9.30
2014,04,16,04,41,9.30
2014,04,16,04,42,9.30
2014,04,16,04,43,9.30
2014,04,16,04,44,9.30
2014,04,16,04,45,9.30
2014,04,16,04,46,9.30
2014,04,16,04,47,9.30
2014,04,16,04,48,9.30
2014,04,16,04,49,9.30
2014,04,16,04,50,9.30
2014,04,16,04,51,9.30
2014,04,16,04,52,9.30
2014,04,16,04,53,9.30
2014,04,16,04,54,9.30
2014,04,16,04,55,9.30
2014,04,16,04,56,9.30
2014,04,16,04,57,9.30
2014,04,16,04,58,9.30
2014,04,16,04,59,9.30
2014,04,16,05,00,9.30
2014,04,16,05,01,9.30
2014,04,16,05,02,9.30
2014,04,16,05,03,9.30
2014,04,16,05,04,9.30
2014,04,16,05,05,9.30
2014,04,16,05,06,9.30
2014,04,16,05,07,9.30
2014,04,16,05,08,9.30
2014,04,16,05,09,9.30
2014,04,16,05,10,9.30
2014,04,16,05,11,9.30
2014,04,16,05,12,9.40
2014,04,16,05,13,9.40
2014,04,16,05,14,9.40
2014,04,16,05,15,9.40
2014,04,16,05,16,9.40
2014,04,16,05,17,9.40
2014,04,16,05,18,9.40
2014,04,16,05,19,9.40
2014,04,16,05,20,9.40
2014,04,16,05,21,9.40
2014,04,16,05,22,9.40
2014,04,16,05,23,9.40
2014,04,16,05,24,9.40
2014,04,16,05,25,9.40
2014,04,16,05,26,9.40
2014,04,16,05,27,9.40
2014,04,16,05,28,9.40
2014,04,16,05,29,9.40
2014,04,16,05,30,9.40
2014,04,16,05,31,9.40
2014,04,16,05,32,9.40
2014,04,16,05,33,9.40
2014,04,16,05,34,9.40
2014,04,16,05,35,9.40
2014,04,16,05,36,9.40
2014,04,16,05,37,9.40
2014,04,16,05,38,9.40
2014,04,16,05,39,9.40
2014,04,16,05,40,9.40
2014,04,16,05,41,9.40
2014,04,16,05,42,9.40
2014,04,16,05,43,9.40
2014,04,16,05,44,9.40
2014,04,16,05,45,9.50
2014,04,16,05,46,9.50
2014,04,16,05,47,9.50
2014,04,16,05,48,9.50
2014,04,16,05,49,9.50
2014,04,16,05,50,9.50
2014,04,16,05,51,9.50
2014,04,16,05,52,9.50
2014,04,16,05,53,9.50
2014,04,16,05,54,9.50
2014,04,16,05,55,9.50
2014,04,16,05,56,9.50
2014,04,16,05,57,9.50
2014,04,16,05,58,9.50
2014,04,16,05,59,9.50
2014,04,16,06,00,9.50
2014,04,16,06,01,9.50
2014,04,16,06,02,9.50
2014,04,16,06,03,9.50
2014,04,16,06,04,9.50
2014,04,16,06,05,9.60
2014,04,16,06,06,9.60
2014,04,16,06,07,9.60
2014,04,16,06,08,9.60
2014,04,16,06,09,9.60
2014,04,16,06,10,9.60
2014,04,16,06,11,9.60
2014,04,16,06,12,9.60
2014,04,16,06,13,9.60
2014,04,16,06,14,9.60
2014,04,16,06,15,9.60
2014,04,16,06,16,9.60
2014,04,16,06,17,9.60
2014,04,16,06,18,9.60
2014,04,16,06,19,9.60
2014,04,16,06,20,9.60
2014,04,16,06,21,9.60
2014,04,16,06,22,9.60
2014,04,16,06,23,9.60
2014,04,16,06,24,9.60
2014,04,16,06,25,9.60
2014,04,16,06,26,9.60
2014,04,16,06,27,9.60
2014,04,16,06,28,9.60
2014,04,16,06,29,9.60
2014,04,16,06,30,9.60
2014,04,16,06,31,9.60
2014,04,16,06,32,9.60
2014,04,16,06,33,9.60
2014,04,16,06,34,9.70
2014,04,16,06,35,9.70
2014,04,16,06,36,9.70
2014,04,16,06,37,9.70
2014,04,16,06,38,9.70
2014,04,16,06,39,9.70
2014,04,16,06,40,9.70
2014,04,16,06,41,9.70
2014,04,16,06,42,9.70
2014,04,16,06,43,9.70
2014,04,16,06,44,9.70
2014,04,16,06,45,9.70
2014,04,16,06,46,9.70
2014,04,16,06,47,9.70
2014,04,16,06,48,9.70
2014,04,16,06,49,9.70
2014,04,16,06,50,9.70
2014,04,16,06,51,9.70
2014,04,16,06,52,9.70
2014,04,16,06,53,9.70
2014,04,16,06,54,9.70
2014,04,16,06,55,9.70
2014,04,16,06,56,9.80
2014,04,16,06,57,9.80
2014,04,16,06,58,9.80
2014,04,16,06,59,9.80
2014,04,16,07,00,9.80
2014,04,16,07,01,9.80
2014,04,16,07,02,9.80
2014,04,16,07,03,9.80
2014,04,16,07,04,9.80
2014,04,16,07,05,9.80
2014,04,16,07,06,9.80
2014,04,16,07,07,9.80
2014,04,16,07,08,9.80
2014,04,16,07,09,9.80
2014,04,16,07,10,9.80
2014,04,16,07,11,9.80
2014,04,16,07,12,9.80
2014,04,16,07,13,9.80
2014,04,16,07,14,9.80
2014,04,16,07,15,9.80
2014,04,16,07,16,9.80
2014,04,16,07,17,9.80
2014,04,16,07,18,9.80
2014,04,16,07,19,9.80
2014,04,16,07,20,9.80
2014,04,16,07,21,9.80
2014,04,16,07,22,9.80
2014,04,16,07,23,9.80
2014,04,16,07,24,9.80
2014,04,16,07,25,9.80
2014,04,16,07,26,9.80
2014,04,16,07,27,9.80
2014,04,16,07,28,9.80
2014,04,16,07,29,9.80
2014,04,16,07,30,9.80
2014,04,16,07,31,9.80
2014,04,16,07,32,9.80
2014,04,16,07,33,9.90
2014,04,16,07,34,9.90
2014,04,16,07,35,9.90
2014,04,16,07,36,9.90
2014,04,16,07,37,9.90
2014,04,16,07,38,9.90
2014,04,16,07,39,9.90
2014,04,16,07,40,9.90
2014,04,16,07,41,9.90
2014,04,16,07,42,9.90
2014,04,16,07,43,9.90
2014,04,16,07,44,9.90
2014,04,16,07,45,9.90
2014,04,16,07,46,9.90
2014,04,16,07,47,9.90
2014,04,16,07,48,9.90
2014,04,16,07,49,10.00
2014,04,16,07,50,10.00
2014,04,16,07,51,10.00
2014,04,16,07,52,10.00
2014,04,16,07,53,10.00
2014,04,16,07,54,10.00
2014,04,16,07,55,10.10
2014,04,16,07,56,10.10
2014,04,16,07,57,10.10
2014,04,16,07,58,10.10
2014,04,16,07,59,10.10
2014,04,16,08,00,10.10
2014,04,16,08,01,10.10
2014,04,16,08,02,10.10
2014,04,16,08,03,10.10
2014,04,16,08,04,10.20
2014,04,16,08,05,10.20
2014,04,16,08,06,10.20
2014,04,16,08,07,10.20
2014,04,16,08,08,10.20
2014,04,16,08,09,10.20
2014,04,16,08,10,10.20
2014,04,16,08,11,10.20
2014,04,16,08,12,10.20
2014,04,16,08,13,10.20
2014,04,16,08,14,10.20
2014,04,16,08,15,10.20
2014,04,16,08,16,10.20
2014,04,16,08,17,10.20
2014,04,16,08,18,10.20
2014,04,16,08,19,10.30
2014,04,16,08,20,10.30
2014,04,16,08,21,10.30
2014,04,16,08,22,10.30
2014,04,16,08,23,10.30
2014,04,16,08,24,10.30
2014,04,16,08,25,10.30
2014,04,16,08,26,10.30
2014,04,16,08,27,10.30
2014,04,16,08,28,10.30
2014,04,16,08,29,10.30
2014,04,16,08,30,10.30
2014,04,16,08,31,10.30
2014,04,16,08,32,10.30
2014,04,16,08,33,10.30
2014,04,16,08,34,10.40
2014,04,16,08,35,10.40
2014,04,16,08,36,10.40
2014,04,16,08,37,10.40
2014,04,16,08,38,10.40
2014,04,16,08,39,10.40
2014,04,16,08,40,10.50
2014,04,16,08,41,10.50
2014,04,16,08,42,10.50
2014,04,16,08,43,10.50
2014,04,16,08,44,10.60
2014,04,16,08,45,10.60
2014,04,16,08,46,10.60
2014,04,16,08,47,10.60
2014,04,16,08,48,10.60
2014,04,16,08,49,10.60
2014,04,16,08,50,10.60
2014,04,16,08,51,10.60
2014,04,16,08,52,10.60
2014,04,16,08,53,10.70
2014,04,16,08,54,10.70
2014,04,16,08,55,10.70
2014,04,16,08,56,10.70
2014,04,16,08,57,10.70
2014,04,16,08,58,10.70
2014,04,16,08,59,10.70
2014,04,16,09,00,10.70
2014,04,16,09,01,10.70
2014,04,16,09,02,10.70
2014,04,16,09,03,10.70
2014,04,16,09,04,10.70
2014,04,16,09,05,10.70
2014,04,16,09,06,10.70
2014,04,16,09,07,10.70
2014,04,16,09,08,10.70
2014,04,16,09,09,10.70
2014,04,16,09,10,10.80
2014,04,16,09,11,10.80
2014,04,16,09,12,10.80
2014,04,16,09,13,10.80
2014,04,16,09,14,10.80
2014,04,16,09,15,10.80
2014,04,16,09,16,10.70
2014,04,16,09,17,10.70
2014,04,16,09,18,10.70
2014,04,16,09,19,10.70
2014,04,16,09,20,10.70
2014,04,16,09,21,10.70
2014,04,16,09,22,10.70
2014,04,16,09,23,10.80
2014,04,16,09,24,10.80
2014,04,16,09,25,10.80
2014,04,16,09,26,10.80
2014,04,16,09,27,10.80
2014,04,16,09,28,10.80
2014,04,16,09,29,10.80
2014,04,16,09,30,10.80
2014,04,16,09,31,10.80
2014,04,16,09,32,10.90
2014,04,16,09,33,10.90
2014,04,16,09,34,10.90
2014,04,16,09,35,10.90
2014,04,16,09,36,10.90
2014,04,16,09,37,10.90
2014,04,16,09,38,11.00
2014,04,16,09,39,11.00
2014,04,16,09,40,10.90
2014,04,16,09,41,10.90
2014,04,16,09,42,10.90
2014,04,16,09,43,10.90
2014,04,16,09,44,10.90
2014,04,16,09,45,10.90
2014,04,16,09,46,10.90
2014,04,16,09,47,10.90
2014,04,16,09,48,10.90
2014,04,16,09,49,10.90
2014,04,16,09,50,10.90
2014,04,16,09,51,10.90
2014,04,16,09,52,10.90
2014,04,16,09,53,10.90
2014,04,16,09,54,10.90
2014,04,16,09,55,10.90
2014,04,16,09,56,10.90
2014,04,16,09,57,10.90
2014,04,16,09,58,10.90
2014,04,16,09,59,10.90
2014,04,16,10,00,10.90
2014,04,16,10,01,10.90
2014,04,16,10,02,10.90
2014,04,16,10,03,10.90
2014,04,16,10,04,11.00
2014,04,16,10,05,11.00
2014,04,16,10,06,11.00
2014,04,16,10,07,11.10
2014,04,16,20,07,10.90
2014,04,16,20,08,10.90
2014,04,16,20,09,10.90
2014,04,16,20,10,10.90
2014,04,16,20,11,10.90
2014,04,16,20,12,10.80
2014,04,16,20,13,10.80
2014,04,16,20,14,10.80
2014,04,16,20,15,10.80
2014,04,16,20,16,10.80
2014,04,16,20,17,10.80
2014,04,16,20,18,10.80
2014,04,16,20,19,10.80
2014,04,16,20,20,10.80
2014,04,16,20,21,10.80
2014,04,16,20,22,10.80
2014,04,16,20,23,10.80
2014,04,16,20,24,10.80
2014,04,16,20,25,10.80
2014,04,16,20,26,10.80
2014,04,16,20,27,10.80
2014,04,16,20,28,10.80
2014,04,16,20,29,10.80
2014,04,16,20,30,10.80
2014,04,16,20,31,10.80
2014,04,16,20,32,10.70
2014,04,16,20,33,10.70
2014,04,16,20,34,10.70
2014,04,16,20,35,10.70
2014,04,16,20,36,10.70
2014,04,16,20,37,10.70
2014,04,16,20,38,10.70
2014,04,16,20,39,10.70
2014,04,16,20,40,10.70
2014,04,16,20,41,10.70
2014,04,16,20,42,10.70
2014,04,16,20,43,10.70
2014,04,16,20,44,10.70
2014,04,16,20,45,10.70
2014,04,16,20,46,10.70
2014,04,16,20,47,10.70
2014,04,16,20,48,10.70
2014,04,16,20,49,10.70
2014,04,16,20,50,10.70
2014,04,16,20,51,10.70
2014,04,16,20,52,10.70
2014,04,16,20,53,10.70
2014,04,16,20,54,10.70
2014,04,16,20,55,10.70
2014,04,16,20,56,10.70
2014,04,16,20,57,10.70
2014,04,16,20,58,10.70
2014,04,16,20,59,10.70
2014,04,16,21,00,10.70
2014,04,16,21,01,10.70
2014,04,16,21,02,10.70
2014,04,16,21,03,10.70
2014,04,16,21,04,10.70
2014,04,16,21,05,10.60
2014,04,16,21,06,10.70
2014,04,16,21,07,10.60
2014,04,16,21,08,10.60
2014,04,16,21,09,10.70
2014,04,16,21,10,10.60
2014,04,16,21,11,10.60
2014,04,16,21,12,10.60
2014,04,16,21,13,10.60
2014,04,16,21,14,10.70
2014,04,16,21,15,10.60
2014,04,16,21,16,10.70
2014,04,16,21,17,10.60
2014,04,16,21,18,10.70
2014,04,16,21,19,10.70
2014,04,16,21,20,10.70
2014,04,16,21,21,10.60
2014,04,16,21,22,10.60
2014,04,16,21,23,10.60
2014,04,16,21,24,10.60
2014,04,16,21,25,10.60
2014,04,16,21,26,10.60
2014,04,16,21,27,10.60
2014,04,16,21,28,10.60
2014,04,16,21,29,10.60
2014,04,16,21,30,10.60
2014,04,16,21,31,10.60
2014,04,16,21,32,10.60
2014,04,16,21,33,10.60
2014,04,16,21,34,10.60
2014,04,16,21,35,10.70
2014,04,16,21,36,10.70
2014,04,16,21,37,10.70
2014,04,16,21,38,10.70
2014,04,16,21,39,10.70
2014,04,16,21,40,10.70
2014,04,16,21,41,10.70
2014,04,16,21,42,10.70
2014,04,16,21,43,10.70
2014,04,16,21,44,10.70
2014,04,16,21,45,10.70
2014,04,16,21,46,10.70
2014,04,16,21,47,10.70
2014,04,16,21,48,10.70
2014,04,16,21,49,10.70
2014,04,16,21,50,10.60
2014,04,16,21,51,10.60
2014,04,16,21,52,10.60
2014,04,16,21,53,10.60
2014,04,16,21,54,10.60
2014,04,16,21,55,10.60
2014,04,16,21,56,10.60
2014,04,16,21,57,10.60
2014,04,16,21,58,10.60
2014,04,16,21,59,10.60
2014,04,16,22,00,10.60
2014,04,16,22,01,10.60
2014,04,16,22,02,10.60
2014,04,16,22,03,10.60
2014,04,16,22,04,10.60
2014,04,16,22,05,10.60
2014,04,16,22,06,10.60
2014,04,16,22,07,10.60
2014,04,16,22,08,10.50
2014,04,16,22,09,10.50
2014,04,16,22,10,10.50
2014,04,16,22,11,10.50
2014,04,16,22,12,10.50
2014,04,16,22,13,10.50
2014,04,16,22,14,10.50
2014,04,16,22,15,10.50
2014,04,16,22,16,10.50
2014,04,16,22,17,10.50
2014,04,16,22,18,10.50
2014,04,16,22,19,10.50
2014,04,16,22,20,10.50
2014,04,16,22,21,10.50
2014,04,16,22,22,10.50
2014,04,16,22,23,10.50
2014,04,16,22,24,10.50
2014,04,16,22,25,10.50
2014,04,16,22,26,10.50
2014,04,16,22,27,10.50
2014,04,16,22,28,10.50
2014,04,16,22,29,10.50
2014,04,16,22,30,10.50
2014,04,16,22,31,10.50
2014,04,16,22,32,10.50
2014,04,16,22,33,10.50
2014,04,16,22,34,10.50
2014,04,16,22,35,10.50
2014,04,16,22,36,10.50
2014,04,16,22,37,10.50
2014,04,16,22,38,10.50
2014,04,16,22,39,10.50
2014,04,16,22,40,10.50
2014,04,16,22,41,10.50
2014,04,16,22,42,10.50
2014,04,16,22,43,10.50
2014,04,16,22,44,10.50
2014,04,16,22,45,10.50
2014,04,16,22,46,10.50
2014,04,16,22,47,10.50
2014,04,16,22,48,10.50
2014,04,16,22,49,10.50
2014,04,16,22,50,10.50
2014,04,16,22,51,10.50
2014,04,16,22,52,10.50
2014,04,16,22,53,10.50
2014,04,16,22,54,10.50
2014,04,16,22,55,10.50
2014,04,16,22,56,10.40
2014,04,16,22,57,10.40
2014,04,16,22,58,10.40
2014,04,16,22,59,10.40
2014,04,16,23,00,10.40
2014,04,16,23,01,10.40
2014,04,16,23,02,10.40
2014,04,16,23,03,10.40
2014,04,16,23,04,10.40
2014,04,16,23,05,10.40
2014,04,16,23,06,10.40
2014,04,16,23,07,10.40
2014,04,16,23,08,10.40
2014,04,16,23,09,10.40
2014,04,16,23,10,10.40
2014,04,16,23,11,10.40
2014,04,16,23,12,10.40
2014,04,16,23,13,10.40
2014,04,16,23,14,10.40
2014,04,16,23,15,10.40
2014,04,16,23,16,10.40
2014,04,16,23,17,10.40
2014,04,16,23,18,10.40
2014,04,16,23,19,10.40
2014,04,16,23,20,10.40
2014,04,16,23,21,10.40
2014,04,16,23,22,10.40
2014,04,16,23,23,10.40
2014,04,16,23,24,10.40
2014,04,16,23,25,10.40
2014,04,16,23,26,10.40
2014,04,16,23,27,10.40
2014,04,16,23,28,10.40
2014,04,16,23,29,10.40
2014,04,16,23,30,10.40
2014,04,16,23,31,10.40
2014,04,16,23,32,10.40
2014,04,16,23,33,10.40
2014,04,16,23,34,10.40
2014,04,16,23,35,10.40
2014,04,16,23,36,10.40
2014,04,16,23,37,10.40
2014,04,16,23,38,10.50
2014,04,16,23,39,10.50
2014,04,16,23,40,10.50
2014,04,16,23,41,10.50
2014,04,16,23,42,10.50
2014,04,16,23,43,10.50
2014,04,16,23,44,10.50
2014,04,16,23,45,10.50
2014,04,16,23,46,10.50
2014,04,16,23,47,10.50
2014,04,16,23,48,10.50
2014,04,16,23,49,10.50
2014,04,16,23,50,10.50
2014,04,16,23,51,10.50
2014,04,16,23,52,10.50
2014,04,16,23,53,10.50
2014,04,16,23,54,10.50
2014,04,16,23,55,10.50
2014,04,16,23,56,10.50
2014,04,16,23,57,10.50
2014,04,16,23,58,10.50
2014,04,16,23,59,10.50
